Location: Monte Vidon Corrado
(43.1167°N, 13.4833°E)
Time: 07:31:35
(UTC+00:00)

Daily predictions for brighter satellites

Satellite Brightness Start Highest point End
(mag) Time Altitude Azimuth Time Altitude Azimuth Time Altitude Azimuth
ATLAS 2AS CENTAUR R/B 3.9 16:20:14 10° WSW 16:27:52 48° NW 16:35:24 10° NNE
Cosmos 1844 Rocket 3.9 16:27:53 10° SSE 16:32:05 22° E 16:36:17 10° NE
Cosmos 1634 Rocket 4.0 16:26:53 10° N 16:33:10 79° E 16:39:27 10° S
CZ-2C R/B 4.0 16:29:14 10° ESE 16:33:43 29° ENE 16:38:25 10° N
H-2A R/B 2.6 16:31:37 10° S 16:35:36 78° WSW 16:39:45 10° NNW
Okean-O 4.1 16:33:03 10° E 16:35:47 16° ENE 16:38:30 10° NNE
H-2A R/B 3.3 16:33:36 10° ESE 16:36:50 18° ENE 16:40:07 10° NNE
Okean O Rocket 1.6 16:33:59 10° SSE 16:38:25 74° ENE 16:42:51 10° N
SMAP 3.3 16:35:47 10° S 16:40:25 79° WSW 16:45:06 10° NNW
CZ-4B R/B 2.2 16:37:38 10° NNE 16:40:41 31° E 16:43:39 10° SSE
OE (NEXTSAT) 4.4 16:37:45 10° WSW 16:41:11 75° SSE 16:44:34 10° ENE
Cosmos 1626 2.8 16:37:45 10° SSW 16:41:23 57° W 16:45:02 10° N
CZ-4B R/B 3.3 16:36:53 10° SSE 16:42:24 88° WSW 16:48:04 10° NNW
Cosmos 773 Rocket 4.0 16:37:51 10° NNW 16:42:58 60° ENE 16:48:01 10° SSE
SL-24 R/B 4.2 16:38:44 10° SSE 16:43:02 87° WSW 16:47:37 10° NNW
Aureole 2 Rocket 3.6 16:43:53 10° SSE 16:46:04 19° E 16:48:02 11° ENE
AQUARIUS 4.4 16:42:53 10° S 16:47:21 76° WSW 16:51:53 10° NNW
Cosmos 1689 Rocket 4.1 16:48:09 11° E 16:48:30 11° E 16:49:30 10° ESE
Cosmos 1818 4.4 16:44:46 10° S 16:49:29 31° ESE 16:54:12 10° NE
Cosmos 1603 4.1 16:46:25 10° NNW 16:52:07 70° WSW 16:57:48 10° SSE
Meteor 2-10 Rocket 3.9 16:47:30 10° N 16:52:45 42° ENE 16:57:45 10° SE
CZ-2D R/B 3.7 16:51:38 10° SE 16:55:14 39° ENE 16:58:50 10° N
YAOGAN 1 3.6 16:54:28 10° ESE 16:57:57 24° ENE 17:01:26 10° NNE
Cosmos 1606 Rocket 3.5 16:53:32 10° N 16:57:57 84° E 17:02:22 10° S
USA 234 4.4 16:52:59 10° ENE 16:58:10 27° N 17:03:26 10° NW
Cosmos 1892 Rocket 3.6 16:54:06 10° S 16:58:20 56° E 17:02:35 10° NNE
H-2A R/B 2.7 16:54:48 10° N 16:59:12 58° WNW 17:03:28 10° SSW
TELKOM 3 3.0 16:57:15 10° SW 16:59:32 61° SSE 17:01:04 20° ENE
FengYun 1-2 T 4.5 16:54:26 10° S 16:59:58 77° WSW 17:05:36 10° NNW
ATLAS 5 CENTAUR R/B 2.7 16:57:12 10° WSW 17:00:56 36° NW 17:05:07 10° NNE
Helios 1A Rocket 4.1 17:00:40 10° ESE 17:03:49 22° ENE 17:07:00 10° NNE
MOS 1 Rocket 3.3 17:04:31 10° NNE 17:08:42 47° E 17:12:50 10° S
Cosmos 2228 3.5 17:05:40 10° NNW 17:09:53 63° W 17:14:07 10° S
ATLAS 3B R/B 4.0 17:03:27 10° NW 17:10:05 46° WSW 17:16:57 10° S
BREEZE-M DEB (TANK) 4.1 17:08:57 10° W 17:11:25 25° SSW 17:14:36 10° SSE
SKYMED 2 3.5 17:10:17 10° NNE 17:14:39 77° ESE 17:18:59 10° S
CZ-4C R/B 4.1 17:11:05 10° WNW 17:15:08 21° NNW 17:19:43 10° NNE
SJ 16-02 1.8 17:11:38 10° S 17:15:44 40° ESE 17:18:57 15° NE
Cosmos 1538 Rocket 3.9 17:11:31 10° NNW 17:16:41 68° ENE 17:21:49 10° SSE
Aureole 3 3.7 17:13:42 10° NNE 17:16:44 28° ENE 17:19:27 10° SE
Nadezhda 4 Rocket 4.1 17:10:50 10° SSE 17:16:54 55° E 17:22:56 10° NNE
CZ-3B R/B 3.0 17:15:43 10° NNW 17:18:08 27° NE 17:20:09 20° ENE
Cosmos 1777 Rocket 4.2 17:13:48 10° SSW 17:19:03 77° WNW 17:24:22 10° NNE
Cosmos 2263 Rocket 3.7 17:16:11 10° WSW 17:21:21 35° NW 17:26:31 10° N
Cosmos 1455 2.4 17:23:45 10° N 17:27:25 45° E 17:31:05 10° SSE
Cosmos 2058 Rocket 3.1 17:24:53 10° N 17:29:24 88° E 17:33:55 10° S
Cosmos 1703 3.9 17:28:06 10° SSE 17:31:33 32° E 17:31:37 32° E
X-37B 1.0 17:29:26 10° SW 17:32:32 50° SSE 17:33:14 40° ESE
Meteor 2-13 Rocket 4.3 17:29:18 10° S 17:35:21 73° E 17:41:30 10° NNE
ARGOS 3.4 17:31:10 10° SE 17:36:10 42° ENE 17:41:12 10° N
Cosmos 44 4.0 17:35:31 10° S 17:39:41 32° ESE 17:40:18 31° E
Okean 1-7 Rocket 3.7 17:35:20 10° S 17:39:52 79° W 17:44:27 10° N
CREW DRAGON DEMO-1 DEB 4.4 17:40:08 10° NW 17:41:52 22° N 17:41:52 22° N
Lacrosse 5 1.9 17:38:01 10° NW 17:43:00 56° NE 17:45:00 34° E
NOSS 3-1 (C) 4.5 17:36:41 10° NNW 17:43:31 40° NE 17:47:11 27° E
ISS -3.9 17:41:08 10° WSW 17:44:29 87° NW 17:45:00 62° NE
ERS-2 2.2 17:42:03 13° N 17:45:14 73° WNW 17:48:51 10° SSW
CSL-04 Debris 4.2 17:41:02 10° SE 17:46:13 52° ENE 17:51:27 10° N
CZ-2C R/B 3.2 17:45:49 32° ENE 17:47:09 36° E 17:52:16 10° SSE
PSLV R/B 3.9 17:43:30 11° NNE 17:47:39 90° N 17:51:52 10° SSW
EXPRESS MD2 3.8 17:41:06 10° WNW 17:48:39 88° SSW 17:50:21 36° ESE
COSMOS 2455 3.3 17:42:45 10° SW 17:48:42 59° NW 17:54:02 13° NNE
Cosmos 1626 Rocket 3.4 17:46:44 10° S 17:51:05 72° E 17:54:00 21° NNE
Cosmos 1844 3.6 17:47:46 10° SSW 17:53:24 80° ESE 17:57:10 22° NNE
Cosmos 2026 Rocket 4.1 17:48:11 10° SSE 17:54:00 49° E 17:59:56 10° NNE
Cosmos 990 Rocket 4.1 17:50:04 10° S 17:55:05 50° ESE 17:56:17 42° ENE
CZ-4 R/B 1.6 17:51:35 10° S 17:55:41 70° W 17:59:44 10° NNW
Cosmos 1833 Rocket 4.2 17:52:11 10° N 17:54:41 19° NNE 17:54:41 19° NNE
Cosmos 2082 Rocket 4.3 17:55:12 10° NNE 17:55:55 12° NNE 17:55:55 12° NNE
USA 229 DEB 4.4 17:53:45 10° NNW 18:00:23 36° NE 18:01:49 34° ENE
USA 229 4.4 17:53:52 10° NNW 18:00:28 36° NE 18:01:52 34° ENE
NOSS 2-1 (C) 4.4 17:58:42 10° SSW 18:00:30 26° S 18:00:30 26° S
COSMO-SKYMED 1 4.3 17:58:44 10° N 18:02:38 33° WNW 18:06:30 10° SW
DMSP B5D1-3 4.4 18:01:31 14° NNE 18:05:56 86° ESE 18:11:01 10° SSW
USA 267 3.5 18:04:13 39° E 18:06:02 48° SE 18:12:17 10° SSW
NOSS 2-1 (D) 4.5 18:04:30 10° SSW 18:06:13 26° S 18:06:13 26° S
Hubble Space Telescope 3.4 18:07:44 10° S 18:08:18 10° S 18:08:45 10° S
Okean-O 3.3 18:07:28 10° S 18:11:48 54° W 18:16:10 10° NNW
CZ-4B R/B 4.4 18:10:37 10° NNW 18:12:36 15° WNW 18:14:34 10° WSW
CZ-2C R/B 4.5 18:08:29 10° SSW 18:13:23 40° W 18:18:34 10° NNW
Cosmos 1844 Rocket 3.2 18:09:57 10° SW 18:15:30 56° WNW 18:19:24 20° NNE
H-2A R/B 2.4 18:10:50 10° S 18:15:43 62° W 18:20:47 10° NNW
NOSS 3-1 (A) 4.5 18:09:11 10° NNW 18:16:05 40° NE 18:16:57 39° ENE
Cosmos 923 Rocket 4.0 18:13:01 10° NNW 18:18:23 80° WSW 18:23:15 12° SSE
Cosmos 1689 Rocket 4.3 18:20:01 24° W 18:20:01 24° W 18:22:00 10° SW
Cosmos 2195 Rocket 4.4 18:13:16 10° S 18:19:35 89° W 18:25:59 10° N
Cosmos 1898 Rocket 3.3 18:18:19 10° SSW 18:23:36 78° ESE 18:23:42 77° E
Cosmos 158 Rocket 4.4 18:18:28 10° NNW 18:23:46 66° WSW 18:29:05 10° S
Meteor 2-8 Rocket 4.3 18:17:57 10° N 18:24:04 86° E 18:30:11 10° S
Cosmos 2278 Rocket 4.1 18:19:25 10° SSE 18:20:26 15° SSE 18:20:26 15° SSE
Meteor 2-15 4.3 18:18:40 10° N 18:24:42 62° ENE 18:24:42 62° ENE
Cosmos 1680 Rocket 3.4 18:20:31 10° NNW 18:25:48 90° NNE 18:26:36 65° SSE
Cosmos 1627 Rocket 4.4 18:23:18 10° S 18:29:28 84° W 18:35:46 10° N
Cosmos 2098 Rocket 4.2 18:23:43 10° S 18:30:40 79° E 18:38:09 10° N
Cosmos 1602 Rocket 4.1 18:26:56 10° SSW 18:31:11 57° W 18:31:34 54° NW
YAOGAN 1 4.3 18:30:01 10° SSW 18:33:53 32° W 18:37:47 10° NNW
Cosmos 1428 Rocket 4.5 18:28:12 10° S 18:34:28 83° W 18:40:50 10° N
CSL-04 Rocket 4.1 18:32:12 10° S 18:37:31 62° WSW 18:42:57 10° NNW
USA 234 3.7 18:40:20 43° NNE 18:40:20 43° NNE 18:46:14 10° NW
Iridium 4 Rocket 4.3 18:42:14 10° N 18:47:44 53° W 18:52:49 10° SSW
SJ 16-02 3.7 18:51:11 10° WSW 18:54:29 20° WNW 18:55:59 17° NNW
Cosmos 2344 4.3 18:46:36 10° NW 18:56:05 74° NE 18:59:36 52° ESE
Lacrosse 5 3.9 19:21:27 10° WNW 19:24:15 24° W 19:24:15 24° W
CZ-2C R/B 4.2 19:27:19 34° WNW 19:27:21 34° WNW 19:32:18 10° SW
NOSS 3-1 (C) 4.4 19:27:18 10° NW 19:34:40 64° WSW 19:34:40 64° WSW
USA 267 4.4 19:51:34 37° W 19:51:34 37° W 19:55:28 10° WSW
